Hourly Data Report for September 13, 2020

BRIER ISLAND
NOVA SCOTIA
Current Station Operator: ECCC - MSC

44°17'09.000" N
66°20'48.000" W
15.80 m
8200604
71988
WVU

Download Data

Hourly Data (September 2020)
Hourly Data Report for September 13, 2020
TIME Temp Definition
°C
Dew Point Definition
°C
Rel Hum Definition
%
Wind Dir Definition
10's deg

Wind Spd Definition
km/h
Visibility Definition
km
Stn Press Definition
kPa
Hmdx Definition


Wind Chill Definition


Weather Definition


00:00 11.4 11.2 99 17 12   102.47     LegendNANA
01:00 11.8 11.8 100 16 13   102.47     LegendNANA
02:00 11.6 11.6 100 15 11   102.45     LegendNANA
03:00 11.6 11.6 100 15 11   102.43     LegendNANA
04:00 11.7 11.7 100 17 10   102.45     LegendNANA
05:00 11.5 11.5 100 16 11   102.43     LegendNANA
06:00 11.5 11.5 100 13 9   102.40     LegendNANA
07:00 12.3 12.3 100 10 14   102.39     LegendNANA
08:00 13.7 13.1 96 12 9   102.39     LegendNANA
09:00 15.0 11.5 80 13 16   102.34     LegendNANA
10:00 15.9 9.3 65 15 16   102.34     LegendNANA
11:00 16.5 10.4 68 15 19   102.24     LegendNANA
12:00 16.9 11.4 70 15 23   102.12     LegendNANA
13:00 18.0 11.6 66 16 23   102.00     LegendNANA
14:00 18.7 11.3 62 16 23   101.90     LegendNANA
15:00 18.1 12.1 68 16 24   101.83     LegendNANA
16:00 17.6 13.0 75 16 25   101.72     LegendNANA
17:00 18.0 13.7 76 16 23   101.66     LegendNANA
18:00 16.6 14.0 85 16 20   101.61     LegendNANA
19:00 15.6 14.8 95 15 17   101.56     LegendNANA
20:00 15.9 15.6 98 15 19   101.51     LegendNANA
21:00 16.2 16.2 100 16 19   101.46     LegendNANA
22:00 16.2 16.2 100 16 24   101.39     LegendNANA
23:00 15.8 LegendMM LegendMM 17 22   101.32     LegendNANA

Notes on Data Quality.

Legend

  • E = Estimated
  • M = Missing
  • NA = Not Available*
  • [empty] = Indicates an unobserved value
Date modified: